Showing default

O3B FM12, 40350

Orbit data source: Space-Track

O3B FM12, 40350 is a payload satellite owned by O3B (JE) that was launched on Thu, 18 Dec 2014 UTC via a SOYUZ-ST-B launch vehicle from the French Guiana (FRGUI). Payload-class satellites include a variety of spacecraft equipped with specific instruments for various scientific and technological missions. These include communications satellites like Starlink; space stations such as the ISS; scientific satellites like the Hubble; Earth observation satellites from companies like Planet Labs, Umbra, and HawkEye 360; GPS; miniature CubeSats for education and research; and military/defense satellites.

Loading next visibility...
Identifier
40350, 2014-083C
Orbit
Active
Last TLE update
1 day ago
Origin
Manufacturer
Thales Alenia
Mission
Operational Commercial Communications
Bus & Motor
PRISMA?, LS-400 AOCS?
Mass
700 kg wet, ~500 kg dry
Launch date (UTC)
2014-12-18 (11 years ago)
Launch vehicle
SOYUZ-ST-B
Launch site
French Guiana (FRGUI)
Object type
Payload
Rocket body
Debris
Shape & HBR
Trap Box + 2 Pan, 12 m
Radar Cross Section
21.980 m², Large (>1 m²)

Expand to show TLE details & history

TLE from 1 day ago
0 O3B FM12
1 40350U 14083C   25181.19201624 -.00000025  00000-0  00000-0 0  9998
2 40350   0.0447 359.9227 0002889  99.0366 261.0704  5.00115851192318
Epoch: 2025-06-30T04:36Z
TLE epoch observation values (Epoch: 2025-06-30T04:36:30.203Z)
Latitude
-0.00133°
Longitude
12.36881°
Altitude
8,065.014 km
Speed
5.254 km/s
True Right ascension
00h 00m 00s
True Declination
0° 00' 05"
Sunlit
Object was in daylight at epoch
Visualization orbit readout
Latitude
0.04562°
Longitude
122.96193°
Altitude
8,060.26 km
Speed
5.256 km/s
Apparent Right ascension
06h 57m 12s
Apparent Declination
-12° 04' 04"
Sunlit
Object is in daylight
Visualization observer readout
Local Sidereal Time
17:41:50
Azimuth
323.926° NNW
Elevation
-57.564°
Doppler factor
1
Orbital elements
Apogee altitude
8,073.116 km
Perigee altitude
8,064.768 km
Semi-major axis
14,447.079 km
Eccentricity
0.00029
Inclination
0.0447°
RAAN
359.9227°
Arg. of periapsis
99.0366°
True anomaly
Unknown
Mean anomaly
261.0704°
Eccentric anomaly
Unknown
Mean motion
1.24989 °/min
Orbital period
288.02 mins
BSTAR
0
Loading maneuver chart data...
Loading SW <> Apogee altitude chart data...
Loading historical data...
Loading historical data...
Loading historical data...
Loading historical data...
Loading historical data...
Loading historical data...
Loading historical data...
Other satellites on launch #83 in the year 2014 (2014-12-18 UTC)

O3B FM12 Visibility forecast

Observer location: undefined°, undefined°

Span
Click to sort rows by Start time (UTC) header in descending order
Start Az.
Max El. time (UTC)
Max El. Az.
Max El.
End time (UTC)
End Az.
80 mins2025-07-01 07:59:06.583Z232.463° WSW2025-07-01 08:39:06.583Z179.824° S24.338°2025-07-01 09:19:06.583Z127.276° SE
79 mins2025-07-01 14:00:06.583Z231.543° WSW2025-07-01 14:39:06.583Z179.849° S24.393°2025-07-01 15:19:06.583Z127.212° SE
78 mins2025-07-01 20:00:06.583Z231.57° WSW2025-07-01 20:39:06.583Z179.78° S24.401°2025-07-01 21:18:06.583Z128.19° SE
78 mins2025-07-02 02:00:06.583Z231.5° WSW2025-07-02 02:39:06.583Z179.755° S24.346°2025-07-02 03:18:06.583Z128.253° SE
|